weather.gov     
National Weather Service

Terminal Aerodrome Forecast
NWS Homepage
This page is being discontinued on March 12, 2014.
The same data is available at this site. Please update your bookmarks.
Thank you, and we apologize for the inconvenience.
Please send an email to SR-SRH.Webmaster@noaa.gov with any concerns.


Current Version
Previous Version:    01  02  03  04  05  06  07  08  09  10  11  12  13  14  15  16  17  18  19  20  21  22  23  24  25  26  27  28  29  30  
   31  
[Printable]
750
FTUS42 TJSJ 212300
TAFKPK
TAF
TKPK 212329Z 2200/2224 03008KT P6SM VCTS SCT018CB BKN040
      TEMPO 2200/2204 04018G30KT 2SM +TSRA BKN018CB
     FM220500 06015G25KT P6SM VCTS SCT020CB
      TEMPO 2206/2208 4SM TSRA SCT020CB BKN030 OVC040
     FM220800 08018G27KT 4SM SHRA BKN022 BKN040=


U.S. Dept. of Commerce
NOAA National Weather Service
1325 East West Highway
Silver Spring, MD 20910
E-mail: w-nws.webmaster@noaa.gov
Page last modified: May 16, 2007
NATIONAL WEATHER SERVICE: for Safety, for Work, for Fun - FOR LIFE